sat.trackr.live / text

‹ back to catalog

STARLINK-33757

NORAD 63720 · 2025-087Z

PAYLOAD ACTIVE UNKNOWN

§ Identity

Operator
Country
US
Launch date
2025-04-28
Launch site
AFWTR
Launch vehicle
Mass (kg)
RCS (m²)

Purposes: comms

External: N2YO · Heavens-Above · Gunter

§ Orbital elements

Epoch: 2026-05-24T22:33:24.768000Z

Period
94.10 min
Inclination
53.1575°
Eccentricity
0.0001238
Mean motion
15.30207603 rev/d
Perigee alt
474.3 km
Apogee alt
476.0 km
Semi-major
6,853.3 km
B*
4.8285e-4
RAAN
225.3889°
Arg perigee
90.8014°
Mean anomaly
269.3129°
Rev number
6,087

§ Raw data

STARLINK-337571 63720U 25087Z   26144.93987000  .00013972  00000+0  48285-3 0  99942 63720  53.1575 225.3889 0001238  90.8014 269.3129 15.30207603 60879

JSON: /api/v1/satellites/63720 · /tle

For live sub-satellite position, see the globe view (requires WebGL).

§ Visibility from observer

Set your observer location to see the next 7 days of passes ≥ 10°. The values pass through the URL so the page stays shareable.

No JS? Fill the form by hand. The geolocation button needs JavaScript.